Regional Weather Roundup
Issued by NWS

Home | Current Version | Previous Version | Graphics & Text | Print | Product List | Glossary On
Versions: 1 2 3 4 5 6 7 8 9 10 11 12 13 14 15 16 17 18 19 20 21 22 23 24 25 26 27 28 29 30 31 32 33 34 35 36 37 38 39 40 41 42 43 44 45 46 47 48 49 50
350
ASUS44 KJAN 241603
RWRMS

MISSISSIPPI HOURLY WEATHER ROUNDUP
NATIONAL WEATHER SERVICE JACKSON MS
1100 AM CDT THU JUL 24 2014

NOTE: "FAIR: INDICATES FEW OR NO CLOUDS BELOW 12,000 FEET WITH NO
SIGNIFICANT WEATHER AND/OR OBSTRUCTIONS TO VISIBILITY.

MSZ001>002-007>008-010>013-018>021-025>028-034>036-241700-
NORTHWEST MISSISSIPPI

CITY           SKY/WX    TMP DP  RH WIND       PRES   REMARKS
CLARKSDALE     PTSUNNY   79  73  83 N6        30.06S
CLEVELAND      PTSUNNY   80  74  82 N5        30.05S
GREENWOOD      MOSUNNY   81  70  69 NE3       30.04R
GREENVILLE       N/A     82  72  69 MISG        N/A
GRENADA        FAIR      82  70  65 N5        30.04S
OLIVE BRANCH   MOSUNNY   77  72  83 N7        30.07S
OXFORD         PTSUNNY   77  70  78 N3        30.07S
TUNICA         PTSUNNY   79  70  73 N10       30.07S
$$

MSZ003>006-009-014>017-022>024-029>033-037>039-241700-
NORTHEAST MISSISSIPPI

CITY           SKY/WX    TMP DP  RH WIND       PRES   REMARKS
BELMONT        PTSUNNY   76  71  82 W5        30.04F
COLUMBUS AFB   CLOUDY    82  72  70 VRB2      30.03S
CORINTH        CLOUDY    73  68  83 NW3       30.05S
GOLDN TRIANGLE PTSUNNY   79  72  78 NW5       30.03F
STARKVILLE     PTSUNNY   81  72  74 CALM      30.03S
TUPELO         PTSUNNY   79  70  74 NE6       30.03S
$$

MSZ040-058-241700-
CENTRAL MISSISSIPPI

CITY           SKY/WX    TMP DP  RH WIND       PRES   REMARKS
JACKSON INTL   MOSUNNY   85  72  65 CALM      30.03S HX  91
JACKSON HAWKNS PTSUNNY   84  72  67 W3        30.04R
MERIDIAN KEY   MOSUNNY   84  72  67 SW5       30.03R
MERIDIAN NAS   MOSUNNY   84  72  67 W7        30.03R
RAYMOND        FAIR      84  79  84 W5        30.03S HX  96
VICKSBURG      MOSUNNY   84  74  71 S5        30.03S HX  91
$$

MSZ059>079-241700-
SOUTH MISSISSIPPI

CITY           SKY/WX    TMP DP  RH WIND       PRES   REMARKS
BROOKHAVEN     FAIR      82  73  74 CALM      30.05S
COLUMBIA       FAIR      84  72  65 CALM      30.02S
HATTIESBURG    SUNNY     84  69  60 CALM      30.04S
MCCOMB         SUNNY     85  71  63 CALM      30.03S HX  90
NATCHEZ        PTSUNNY   81  73  78 NW7       30.04S
PINE BELT      PTSUNNY   82  72  69 SW6       30.05S
$$

MSZ080>082-241700-
COASTAL MISSISSIPPI

CITY           SKY/WX    TMP DP  RH WIND       PRES   REMARKS
BAY ST LOUIS   TSTM     N/A N/A N/A CALM      30.03S
BILOXI         MOSUNNY   83  73  72 VRB6      30.03S
PASCAGOULA     PTSUNNY   85  73  67 VRB7      30.02F HX  91
GULFPORT       MOSUNNY   85  72  65 VRB5      30.02F HX  91
$$



USA.gov is the U.S. government's official web portal to all federal, state and local government web resources and services.